Weather History for Shawnee, OK

Change the Weather History Date:

Wednesday, March 26, 2014

  Actual Average (KTIK) Record (KTIK)
Temperature  
Mean Temperature 47 °F -  
Max Temperature 55 °F 62 °F 81 °F (2012)
Min Temperature 39 °F 42 °F 24 °F (2002)
Degree Days  
Heating Degree Days 18    
Moisture  
Dew Point 39 °F    
Average Humidity 76    
Maximum Humidity 100    
Minimum Humidity 47    
Precipitation  
Precipitation 0.26 in - - ()
Sea Level Pressure  
Sea Level Pressure 30.04 in    
Wind  
Wind Speed 11 mph (SSE)    
Max Wind Speed 20 mph    
Max Gust Speed 26 mph    
Visibility 9 miles    
Events Rain    
Averages and records for this station are not official NWS values.
T = Trace of Precipitation, MM = Missing Value Source: NWS Daily Summary

Daily Weather History Graph

Daily Weather History Graph

Search for Another Location

Airport:

Trip Planner

Search our weather history database for the weather conditions in past years. The results will help you decide how hot, cold, wet, or windy it might be!

Date:

Astronomy

Mar. 26, 2014 Rise Set
Actual Time 7:22 AM CDT 7:44 PM CDT
Civil Twilight 6:57 AM CDT 8:09 PM CDT
Nautical Twilight 6:27 AM CDT 8:39 PM CDT
Astronomical Twilight 5:57 AM CDT 9:10 PM CDT
Moon 4:23 AM CDT (3/26) 3:32 PM CDT (3/26)
Length of Visible Light 13h 12m
Length of Day
12h 21m
Waning Crescent, 21% of the Moon is Illuminated
Mar 26
Waning Crescent
Mar 30
New
Apr 7
First Quarter
Apr 15
Full
Apr 22
Last Quarter

Hourly Weather History & Observations

Time (CDT) Temp. Windchill Dew Point Humidity Pressure Visibility Wind Dir Wind Speed Gust Speed Precip Events Conditions
12:15 AM 42.8 °F 38.6 °F 32.0 °F 66% 30.22 in 10.0 mi SE 6.9 mph - N/A   Clear
12:35 AM 42.8 °F 38.6 °F 32.0 °F 66% 30.21 in 10.0 mi SE 6.9 mph - N/A   Clear
12:55 AM 42.8 °F 37.5 °F 32.0 °F 66% 30.21 in 10.0 mi SE 9.2 mph - N/A   Clear
1:15 AM 42.8 °F 38.0 °F 32.0 °F 66% 30.20 in 10.0 mi SE 8.1 mph - N/A   Clear
1:35 AM 42.8 °F 38.0 °F 32.0 °F 66% 30.19 in 10.0 mi SE 8.1 mph - N/A   Clear
1:55 AM 42.8 °F 38.6 °F 32.0 °F 66% 30.19 in 10.0 mi ESE 6.9 mph - N/A   Clear
2:15 AM 41.0 °F 36.4 °F 32.0 °F 70% 30.19 in 10.0 mi SE 6.9 mph - N/A   Clear
2:35 AM 41.0 °F 36.4 °F 32.0 °F 70% 30.19 in 10.0 mi SE 6.9 mph - N/A   Clear
2:55 AM 41.0 °F 37.1 °F 32.0 °F 70% 30.19 in 10.0 mi SSE 5.8 mph - N/A   Clear
3:15 AM 41.0 °F 37.1 °F 32.0 °F 70% 30.19 in 10.0 mi SSE 5.8 mph - N/A   Clear
3:35 AM 41.0 °F 37.1 °F 32.0 °F 70% 30.16 in 10.0 mi SE 5.8 mph - N/A   Clear
3:55 AM 39.2 °F 34.2 °F 30.2 °F 70% 30.16 in 10.0 mi SE 6.9 mph - N/A   Clear
4:15 AM 41.0 °F 36.4 °F 32.0 °F 70% 30.15 in 10.0 mi SSE 6.9 mph - N/A   Clear
4:35 AM 41.0 °F 36.4 °F 32.0 °F 70% 30.15 in 10.0 mi SSE 6.9 mph - N/A   Clear
4:55 AM 41.0 °F 36.4 °F 32.0 °F 70% 30.15 in 10.0 mi SSE 6.9 mph - N/A   Clear
5:15 AM 41.0 °F 36.4 °F 32.0 °F 70% 30.14 in 10.0 mi SSE 6.9 mph - N/A   Clear
5:35 AM 41.0 °F 37.1 °F 32.0 °F 70% 30.14 in 10.0 mi SSE 5.8 mph - N/A   Clear
5:55 AM 41.0 °F 36.4 °F 32.0 °F 70% 30.14 in 10.0 mi SSE 6.9 mph - N/A   Clear
6:15 AM 41.0 °F 34.7 °F 32.0 °F 70% 30.13 in 10.0 mi SSE 10.4 mph - N/A   Clear
6:35 AM 41.0 °F 35.8 °F 32.0 °F 70% 30.13 in 10.0 mi SSE 8.1 mph - N/A   Clear
6:55 AM 41.0 °F 35.2 °F 32.0 °F 70% 30.12 in 10.0 mi SSE 9.2 mph - N/A   Clear
7:15 AM 41.0 °F 34.3 °F 32.0 °F 70% 30.12 in 10.0 mi SSE 11.5 mph - N/A   Clear
7:35 AM 42.8 °F 37.0 °F 32.0 °F 66% 30.12 in 10.0 mi SSE 10.4 mph - N/A   Clear
7:55 AM 42.8 °F 36.2 °F 32.0 °F 66% 30.12 in 10.0 mi SSE 12.7 mph 17.3 mph N/A   Clear
8:15 AM 44.6 °F 38.1 °F 32.0 °F 61% 30.12 in 10.0 mi SSE 13.8 mph 20.7 mph N/A   Clear
8:35 AM 44.6 °F 37.8 °F 32.0 °F 61% 30.12 in 10.0 mi SSE 15.0 mph - N/A   Clear
8:55 AM 46.4 °F 41.1 °F 32.0 °F 57% 30.12 in 10.0 mi South 11.5 mph 19.6 mph N/A   Clear
9:15 AM 48.2 °F - 33.8 °F 58% 30.12 in 10.0 mi SSE 15.0 mph 23.0 mph N/A   Clear
9:35 AM 48.2 °F - 32.0 °F 54% 30.12 in 10.0 mi SSE 12.7 mph 23.0 mph N/A   Clear
9:55 AM 51.8 °F - 33.8 °F 50% 30.12 in 10.0 mi South 17.3 mph 24.2 mph N/A   Scattered Clouds
10:15 AM 51.8 °F - 32.0 °F 47% 30.13 in 10.0 mi South 17.3 mph - N/A   Scattered Clouds
10:35 AM 51.8 °F - 32.0 °F 47% 30.14 in 10.0 mi South 16.1 mph 20.7 mph N/A   Mostly Cloudy
10:55 AM 51.8 °F - 32.0 °F 47% 30.14 in 10.0 mi South 10.4 mph - N/A   Mostly Cloudy
11:15 AM 50.0 °F - 33.8 °F 54% 30.14 in 10.0 mi South 12.7 mph 19.6 mph N/A Rain Light Rain
11:35 AM 46.4 °F 40.1 °F 33.8 °F 62% 30.14 in 10.0 mi South 15.0 mph 20.7 mph N/A Rain Light Rain
11:55 AM 44.6 °F 39.2 °F 35.6 °F 71% 30.15 in 7.0 mi South 10.4 mph - N/A Rain Light Rain
12:15 PM 44.6 °F 38.4 °F 37.4 °F 76% 30.15 in 5.0 mi South 12.7 mph 19.6 mph 0.02 in Rain Rain
12:35 PM 42.8 °F 37.0 °F 39.2 °F 87% 30.14 in 7.0 mi SSE 10.4 mph - 0.04 in Rain Light Rain
12:55 PM 42.8 °F 37.5 °F 41.0 °F 93% 30.13 in 4.0 mi South 9.2 mph - 0.09 in Rain Rain
1:15 PM 42.8 °F 36.6 °F 41.0 °F 93% 30.12 in 4.0 mi South 11.5 mph 16.1 mph 0.04 in Rain Rain
1:35 PM 42.8 °F 37.0 °F 42.8 °F 100% 30.11 in 2.0 mi South 10.4 mph - 0.14 in Rain Rain
1:55 PM 42.8 °F 35.8 °F 42.8 °F 100% 30.08 in 7.0 mi SSE 13.8 mph 18.4 mph 0.17 in Rain Light Rain
2:15 PM 42.8 °F 35.4 °F 42.8 °F 100% 30.05 in 10.0 mi SSE 15.0 mph - N/A   Overcast
2:35 PM 44.6 °F 38.4 °F 42.8 °F 93% 30.02 in 7.0 mi SSE 12.7 mph 17.3 mph N/A   Overcast
2:55 PM 44.6 °F 38.1 °F 44.6 °F 100% 30.00 in 10.0 mi SSE 13.8 mph 20.7 mph N/A   Overcast
3:15 PM 46.4 °F 39.8 °F 44.6 °F 93% 29.99 in 7.0 mi SSE 16.1 mph 20.7 mph N/A Rain Light Rain
3:35 PM 46.4 °F 39.5 °F 44.6 °F 93% 29.98 in 10.0 mi SSE 17.3 mph 23.0 mph N/A   Overcast
3:55 PM 46.4 °F 40.4 °F 44.6 °F 93% 29.97 in 10.0 mi SSE 13.8 mph 23.0 mph N/A   Overcast
4:15 PM 46.4 °F 39.0 °F 44.6 °F 93% 29.95 in 10.0 mi SSE 19.6 mph 25.3 mph N/A   Overcast
4:35 PM 48.2 °F - 46.4 °F 93% 29.94 in 10.0 mi SSE 17.3 mph 23.0 mph N/A   Overcast
4:55 PM 48.2 °F - 44.6 °F 87% 29.94 in 7.0 mi SSE 17.3 mph 23.0 mph N/A   Overcast
5:15 PM 46.4 °F 40.1 °F 44.6 °F 93% 29.93 in 5.0 mi SSE 15.0 mph 26.5 mph N/A   Overcast
5:35 PM 46.4 °F 40.1 °F 44.6 °F 93% 29.92 in 4.0 mi SSE 15.0 mph 23.0 mph N/A Rain Light Rain
5:55 PM 46.4 °F 40.1 °F 46.4 °F 100% 29.92 in 7.0 mi SSE 15.0 mph 23.0 mph N/A   Overcast
6:15 PM 48.2 °F - 46.4 °F 93% 29.89 in 10.0 mi SSE 18.4 mph 26.5 mph N/A   Overcast
6:35 PM 48.2 °F - 46.4 °F 93% 29.88 in 10.0 mi SSE 13.8 mph 20.7 mph N/A   Overcast
6:55 PM 48.2 °F - 44.6 °F 87% 29.87 in 10.0 mi SSE 16.1 mph 25.3 mph N/A   Overcast
7:15 PM 51.8 °F - 46.4 °F 82% - 10.0 mi SSE 18.4 mph 25.3 mph N/A   Overcast
7:35 PM 51.8 °F - 46.4 °F 82% 29.84 in 10.0 mi SSE 18.4 mph 24.2 mph N/A   Overcast
7:55 PM 51.8 °F - 46.4 °F 82% 29.84 in 10.0 mi SSE 13.8 mph 23.0 mph N/A   Overcast
8:15 PM 51.8 °F - 44.6 °F 76% 29.83 in 10.0 mi SSE 16.1 mph 20.7 mph N/A   Overcast
8:35 PM 51.8 °F - 44.6 °F 76% 29.82 in 10.0 mi SSE 16.1 mph 25.3 mph N/A   Overcast
8:55 PM 51.8 °F - 44.6 °F 76% 29.83 in 10.0 mi SSE 11.5 mph 19.6 mph N/A   Overcast
9:15 PM 51.8 °F - 44.6 °F 76% 29.83 in 10.0 mi South 15.0 mph 19.6 mph N/A   Overcast
9:35 PM 51.8 °F - 44.6 °F 76% 29.82 in 10.0 mi SSE 13.8 mph 24.2 mph N/A   Overcast
9:55 PM 51.8 °F - 46.4 °F 82% 29.82 in 10.0 mi SSE 15.0 mph 20.7 mph N/A   Overcast
10:15 PM 53.6 °F - 46.4 °F 77% 29.81 in 10.0 mi SSE 12.7 mph 19.6 mph N/A   Overcast
10:35 PM 53.6 °F - 46.4 °F 77% 29.80 in 10.0 mi South 15.0 mph 23.0 mph N/A   Overcast
10:55 PM 53.6 °F - 46.4 °F 77% 29.79 in 10.0 mi SSE 17.3 mph 23.0 mph N/A   Overcast
11:15 PM 55.4 °F - 50.0 °F 82% 29.79 in 10.0 mi South 17.3 mph 24.2 mph N/A   Overcast
11:35 PM 55.4 °F - 50.0 °F 82% 29.78 in 10.0 mi South 18.4 mph 25.3 mph N/A   Overcast
11:55 PM 55.4 °F - 50.0 °F 82% 29.77 in 10.0 mi South 15.0 mph 25.3 mph N/A   Mostly Cloudy